Time,TemperatureF,DewpointF,PressureIn,WindDirection,WindDirectionDegrees,WindSpeedMPH,WindSpeedGustMPH,Humidity,HourlyPrecipIn,Conditions,Clouds,dailyrainin,SoftwareType,DateUTC
2013-04-11 00:00:00,70.8,68.4,29.72,SE,140,0.0,15.0,92,0.00,,,0.00,Wunderground v.1.15,2013-04-11 05:00:00,
2013-04-11 00:05:00,70.8,68.4,29.72,SE,140,0.0,15.0,92,0.00,,,0.00,Wunderground v.1.15,2013-04-11 05:05:00,
2013-04-11 00:15:00,70.7,68.3,29.72,SSE,154,0.0,0.0,92,0.00,,,0.00,Wunderground v.1.15,2013-04-11 05:15:00,
2013-04-11 00:20:00,70.7,68.6,29.72,South,171,0.0,0.0,93,0.00,,,0.00,Wunderground v.1.15,2013-04-11 05:20:00,
2013-04-11 00:30:00,70.6,68.5,29.70,ESE,122,0.0,0.0,93,0.00,,,0.00,Wunderground v.1.15,2013-04-11 05:30:00,
2013-04-11 00:35:00,70.6,68.5,29.70,ESE,118,0.0,0.0,93,0.00,,,0.00,Wunderground v.1.15,2013-04-11 05:35:00,
2013-04-11 00:40:00,70.6,68.5,29.69,SSE,157,0.0,0.0,93,0.00,,,0.00,Wunderground v.1.15,2013-04-11 05:40:00,
2013-04-11 00:45:00,70.6,68.5,29.69,SE,134,0.0,0.0,93,0.00,,,0.00,Wunderground v.1.15,2013-04-11 05:45:00,
2013-04-11 00:50:00,70.6,68.5,29.69,SSE,157,0.0,0.0,93,0.00,,,0.00,Wunderground v.1.15,2013-04-11 05:50:00,
2013-04-11 00:55:00,70.6,68.5,29.70,SE,139,0.0,0.0,93,0.00,,,0.00,Wunderground v.1.15,2013-04-11 05:55:00,
2013-04-11 01:00:00,70.6,68.5,29.70,SE,134,0.0,0.0,93,0.00,,,0.00,Wunderground v.1.15,2013-04-11 06:00:00,
2013-04-11 01:05:00,70.6,68.5,29.70,SSE,159,0.0,0.0,93,0.00,,,0.01,Wunderground v.1.15,2013-04-11 06:05:00,
2013-04-11 01:10:00,70.6,68.5,29.69,East,92,0.0,0.0,93,0.00,,,0.01,Wunderground v.1.15,2013-04-11 06:10:00,
2013-04-11 01:15:00,70.5,68.4,29.69,ESE,110,0.0,0.0,93,0.00,,,0.01,Wunderground v.1.15,2013-04-11 06:15:00,
2013-04-11 01:20:00,70.4,68.6,29.69,SSE,156,0.0,0.0,94,0.00,,,0.01,Wunderground v.1.15,2013-04-11 06:20:00,
2013-04-11 01:25:00,70.4,68.6,29.68,SE,136,0.0,0.0,94,0.00,,,0.01,Wunderground v.1.15,2013-04-11 06:25:00,
2013-04-11 01:35:00,70.3,68.5,29.68,SE,133,0.0,0.0,94,0.00,,,0.01,Wunderground v.1.15,2013-04-11 06:35:00,
2013-04-11 01:40:00,70.3,68.5,29.68,SE,146,0.0,0.0,94,0.00,,,0.01,Wunderground v.1.15,2013-04-11 06:40:00,
2013-04-11 01:45:00,70.3,68.5,29.68,South,188,0.0,0.0,94,0.00,,,0.01,Wunderground v.1.15,2013-04-11 06:45:00,
2013-04-11 01:50:00,70.3,68.5,29.68,SE,136,0.0,0.0,94,0.00,,,0.01,Wunderground v.1.15,2013-04-11 06:50:00,
2013-04-11 01:55:00,70.3,68.5,29.67,SE,145,0.0,0.0,94,0.00,,,0.01,Wunderground v.1.15,2013-04-11 06:55:00,
2013-04-11 02:00:00,70.3,68.5,29.67,SE,140,0.0,0.0,94,0.00,,,0.01,Wunderground v.1.15,2013-04-11 07:00:00,
2013-04-11 02:10:00,70.3,68.5,29.67,SE,134,0.0,0.0,94,0.00,,,0.01,Wunderground v.1.15,2013-04-11 07:10:00,
2013-04-11 02:15:00,70.3,68.8,29.67,SSE,156,0.0,0.0,95,0.00,,,0.01,Wunderground v.1.15,2013-04-11 07:15:00,
2013-04-11 02:20:00,70.3,68.8,29.67,ESE,103,0.0,0.0,95,0.00,,,0.01,Wunderground v.1.15,2013-04-11 07:20:00,
2013-04-11 02:25:00,70.3,68.8,29.66,SSE,152,0.0,0.0,95,0.00,,,0.01,Wunderground v.1.15,2013-04-11 07:25:00,
2013-04-11 02:30:00,70.3,68.8,29.66,South,181,0.0,0.0,95,0.00,,,0.01,Wunderground v.1.15,2013-04-11 07:30:00,
2013-04-11 02:35:00,70.2,68.7,29.66,SE,124,0.0,0.0,95,0.00,,,0.01,Wunderground v.1.15,2013-04-11 07:35:00,
2013-04-11 02:40:00,70.2,68.7,29.65,SE,140,0.0,0.0,95,0.00,,,0.01,Wunderground v.1.15,2013-04-11 07:40:00,
2013-04-11 02:45:00,70.1,68.6,29.65,SE,130,0.0,0.0,95,0.00,,,0.01,Wunderground v.1.15,2013-04-11 07:45:00,
2013-04-11 02:50:00,70.1,68.3,29.65,SE,134,0.0,0.0,94,0.00,,,0.01,Wunderground v.1.15,2013-04-11 07:50:00,
2013-04-11 02:55:00,70.1,68.3,29.65,SE,136,0.0,0.0,94,0.00,,,0.01,Wunderground v.1.15,2013-04-11 07:55:00,
2013-04-11 03:00:00,70.0,68.2,29.65,SE,129,0.0,0.0,94,0.00,,,0.01,Wunderground v.1.15,2013-04-11 08:00:00,
2013-04-11 08:19:00,71.3,69.5,29.61,SSE,154,0.0,0.0,94,0.00,,,0.01,Wunderground v.1.15,2013-04-11 13:19:00,
2013-04-11 08:20:00,71.3,69.5,29.61,SE,136,0.0,0.0,94,0.00,,,0.01,Wunderground v.1.15,2013-04-11 13:20:00,
2013-04-11 08:25:00,71.4,69.6,29.60,SSE,149,0.0,0.0,94,0.00,,,0.01,Wunderground v.1.15,2013-04-11 13:25:00,
2013-04-11 08:30:00,71.5,69.7,29.60,SSE,149,0.0,0.0,94,0.00,,,0.01,Wunderground v.1.15,2013-04-11 13:30:00,
2013-04-11 08:35:00,71.7,69.9,29.60,SE,145,0.0,0.0,94,0.00,,,0.02,Wunderground v.1.15,2013-04-11 13:35:00,
2013-04-11 08:40:00,71.8,70.0,29.60,SSE,167,0.0,0.0,94,0.00,,,0.02,Wunderground v.1.15,2013-04-11 13:40:00,
2013-04-11 08:45:00,71.9,70.1,29.60,SW,234,0.0,0.0,94,0.00,,,0.02,Wunderground v.1.15,2013-04-11 13:45:00,
2013-04-11 08:50:00,71.8,69.7,29.60,SSE,166,0.0,0.0,93,0.00,,,0.02,Wunderground v.1.15,2013-04-11 13:50:00,
2013-04-11 08:55:00,72.0,69.9,29.60,SE,137,0.0,0.0,93,0.00,,,0.02,Wunderground v.1.15,2013-04-11 13:55:00,
2013-04-11 09:05:00,72.4,70.3,29.60,SSE,163,0.0,0.0,93,0.00,,,0.02,Wunderground v.1.15,2013-04-11 14:05:00,
2013-04-11 09:10:00,72.7,70.6,29.60,SW,223,0.0,0.0,93,0.00,,,0.02,Wunderground v.1.15,2013-04-11 14:10:00,
2013-04-11 09:15:00,73.0,70.5,29.60,SSW,205,0.0,0.0,92,0.00,,,0.02,Wunderground v.1.15,2013-04-11 14:15:00,
2013-04-11 09:20:00,73.3,70.8,29.60,South,187,0.0,0.0,92,0.00,,,0.02,Wunderground v.1.15,2013-04-11 14:20:00,
2013-04-11 09:25:00,73.4,70.6,29.59,SE,140,0.0,0.0,91,0.00,,,0.02,Wunderground v.1.15,2013-04-11 14:25:00,
2013-04-11 09:30:00,73.5,70.4,29.59,South,191,0.0,0.0,90,0.00,,,0.02,Wunderground v.1.15,2013-04-11 14:30:00,
2013-04-11 09:35:00,73.5,70.4,29.59,SSE,156,0.0,0.0,90,0.00,,,0.02,Wunderground v.1.15,2013-04-11 14:35:00,
2013-04-11 09:40:00,73.7,70.6,29.60,SSE,165,0.0,0.0,90,0.00,,,0.02,Wunderground v.1.15,2013-04-11 14:40:00,
2013-04-11 09:45:00,73.9,70.8,29.60,SE,130,0.0,0.0,90,0.00,,,0.02,Wunderground v.1.15,2013-04-11 14:45:00,
2013-04-11 09:50:00,74.1,71.0,29.60,ESE,109,0.0,0.0,90,0.00,,,0.02,Wunderground v.1.15,2013-04-11 14:50:00,
2013-04-11 09:55:00,74.3,70.8,29.60,South,188,0.0,0.0,89,0.00,,,0.02,Wunderground v.1.15,2013-04-11 14:55:00,
2013-04-11 10:00:00,74.2,70.7,29.60,South,171,0.0,0.0,89,0.00,,,0.02,Wunderground v.1.15,2013-04-11 15:00:00,
2013-04-11 10:05:00,74.1,70.6,29.60,SSE,167,0.0,0.0,89,0.00,,,0.02,Wunderground v.1.15,2013-04-11 15:05:00,
2013-04-11 10:10:00,74.1,71.0,29.60,SE,134,0.0,0.0,90,0.00,,,0.02,Wunderground v.1.15,2013-04-11 15:10:00,
2013-04-11 10:15:00,74.4,70.9,29.60,SE,144,0.0,0.0,89,0.00,,,0.02,Wunderground v.1.15,2013-04-11 15:15:00,
2013-04-11 10:20:00,74.7,70.9,29.60,South,187,0.0,0.0,88,0.00,,,0.02,Wunderground v.1.15,2013-04-11 15:20:00,
2013-04-11 10:25:00,74.8,71.0,29.59,SW,217,0.0,0.0,88,0.00,,,0.02,Wunderground v.1.15,2013-04-11 15:25:00,
2013-04-11 10:30:00,75.0,70.9,29.59,SSW,202,0.0,0.0,87,0.00,,,0.02,Wunderground v.1.15,2013-04-11 15:30:00,
2013-04-11 10:35:00,75.0,70.5,29.59,SSW,195,0.0,0.0,86,0.00,,,0.02,Wunderground v.1.15,2013-04-11 15:35:00,
2013-04-11 10:40:00,75.1,70.6,29.58,SSE,167,0.0,0.0,86,0.00,,,0.02,Wunderground v.1.15,2013-04-11 15:40:00,
2013-04-11 10:45:00,75.1,70.6,29.58,SSE,151,0.0,0.0,86,0.00,,,0.02,Wunderground v.1.15,2013-04-11 15:45:00,
2013-04-11 10:50:00,75.0,70.5,29.58,SE,125,0.0,0.0,86,0.00,,,0.02,Wunderground v.1.15,2013-04-11 15:50:00,
2013-04-11 10:55:00,74.8,70.3,29.58,WSW,238,0.0,0.0,86,0.00,,,0.02,Wunderground v.1.15,2013-04-11 15:55:00,
2013-04-11 11:00:00,74.6,70.5,29.58,SE,132,0.0,0.0,87,0.00,,,0.02,Wunderground v.1.15,2013-04-11 16:00:00,
2013-04-11 11:05:00,74.5,70.4,29.58,SW,217,0.0,0.0,87,0.00,,,0.02,Wunderground v.1.15,2013-04-11 16:05:00,
2013-04-11 11:10:00,74.1,70.3,29.57,South,173,0.0,0.0,88,0.44,,,0.04,Wunderground v.1.15,2013-04-11 16:10:00,
2013-04-11 11:20:00,72.8,70.0,29.57,SSE,150,0.0,0.0,91,0.09,,,0.11,Wunderground v.1.15,2013-04-11 16:20:00,